FW4838 Weather Reports


time (UTC)temp
C
wind
direction
speed
KPH
gust
KPH
rain 1hr
cm
rain 24hr
cm
rain mn
cm
humidity
%
barometer
mb
20260506091543 10 349 6.4 16.1 0.00 0.00 0.00 84 1012.3
20260506090041 10 360 6.4 14.5 0.00 0.00 0.00 84 1012.4
20260506084539 10 350 6.4 16.1 0.00 0.00 0.00 84 1012.2
20260506083038 11 5 4.8 12.9 0.00 0.00 0.00 84 1012.4
20260506081535 11 11 6.4 19.3 0.00 0.00 0.00 84 1012.3
20260506073044 11 13 6.4 16.1 0.00 0.00 0.00 84 1012.2
20260506071536 11 336 4.8 14.5 0.00 0.00 0.00 84 1012.2
20260506061539 12 352 4.8 9.7 0.00 0.00 0.00 83 1012.1
20260506044546 14 25 11.3 20.9 0.00 0.00 0.00 76 1011.6
20260506043036 15 30 11.3 20.9 0.00 0.00 0.00 74 1011.7
20260506041551 16 15 11.3 20.9 0.00 0.00 0.00 73 1011.5
20260506040041 16 28 12.9 20.9 0.00 0.00 0.00 71 1011.3
20260506034544 17 26 4.8 17.7 0.00 0.00 0.00 69 1011.2
20260506033038 17 346 11.3 20.9 0.00 0.00 0.00 68 1011.1
20260506031536 17 41 8.0 17.7 0.00 0.00 0.00 67 1010.7
20260506030041 18 19 8.0 16.1 0.00 0.00 0.00 66 1010.3
20260506024545 18 44 6.4 16.1 0.00 0.00 0.00 65 1010.2
20260506023039 19 15 8.0 19.3 0.00 0.00 0.00 64 1010.1
20260506021546 19 26 6.4 14.5 0.00 0.00 0.00 64 1009.6
20260506020036 20 21 6.4 12.9 0.00 0.00 0.00 63 1009.1
20260506014541 20 22 8.0 20.9 0.00 0.00 0.00 61 1009.0
20260506013045 21 25 9.7 20.9 0.00 0.00 0.00 61 1008.5
20260506011604 21 44 4.8 14.5 0.00 0.00 0.00 60 1008.2
20260506010037 22 67 8.0 19.3 0.00 0.00 0.00 59 1008.1
20260506004545 22 349 6.4 17.7 0.00 0.00 0.00 58 1008.1
20260506003042 23 49 11.3 22.5 0.00 0.00 0.00 57 1007.2
20260506001543 23 61 9.7 19.3 0.00 0.00 0.00 57 1007.4
20260506000046 24 73 14.5 25.7 0.00 0.00 0.00 55 1006.9
20260505234538 25 28 12.9 24.1 0.00 0.00 0.00 55 1007.4
20260505233041 26 24 16.1 25.7 0.00 0.00 0.00 54 1006.9
20260505231543 26 20 14.5 25.7 0.00 0.00 0.00 54 1007.0
20260505230040 27 30 16.1 30.6 0.00 0.00 0.00 52 1006.8
20260505224539 29 352 17.7 32.2 0.00 0.00 0.00 48 1006.3
20260505223036 31 63 8.0 16.1 0.00 0.00 0.00 39 1005.8
20260505221534 31 45 11.3 16.1 0.00 0.00 0.00 38 1005.7
20260505220053 31 5 8.0 17.7 0.00 0.00 0.00 37 1005.7
20260505214541 32 332 4.8 12.9 0.00 0.00 0.00 36 1006.0
20260505213039 31 21 9.7 22.5 0.00 0.00 0.00 37 1006.1
20260505211539 31 25 9.7 16.1 0.00 0.00 0.00 35 1006.1
20260505210041 32 0 4.8 9.7 0.00 0.00 0.00 35 1006.2
20260505204550 32 219 4.8 12.9 0.00 0.00 0.00 36 1006.4
20260505203039 32 267 8.0 16.1 0.00 0.00 0.00 35 1006.5
20260505201540 31 200 1.6 12.9 0.00 0.00 0.00 39 1006.6
20260505200036 31 185 6.4 16.1 0.00 0.00 0.00 41 1006.9
20260505194535 31 231 3.2 16.1 0.00 0.00 0.00 42 1007.1
20260505193043 31 236 3.2 11.3 0.00 0.00 0.00 43 1007.1
20260505191537 31 277 11.3 25.7 0.00 0.00 0.00 42 1007.5
20260505190035 30 226 6.4 14.5 0.00 0.00 0.00 43 1007.3
20260505184536 30 276 9.7 19.3 0.00 0.00 0.00 46 1007.5
20260505183049 30 221 8.0 19.3 0.00 0.00 0.00 47 1007.6
20260505181540 30 237 4.8 14.5 0.00 0.00 0.00 49 1007.7
20260505180038 28 307 8.0 20.9 0.00 0.00 0.00 50 1007.8
20260505174536 28 227 6.4 16.1 0.00 0.00 0.00 52 1007.9
20260505173033 28 279 8.0 16.1 0.00 0.00 0.00 51 1007.9
20260505171543 28 283 6.4 22.5 0.00 0.00 0.00 53 1007.9
20260505170039 27 225 8.0 19.3 0.00 0.00 0.00 55 1007.8
20260505164551 27 267 8.0 16.1 0.00 0.00 0.00 55 1007.7
20260505163036 27 248 6.4 19.3 0.00 0.00 0.00 60 1007.9
20260505161550 26 202 9.7 19.3 0.00 0.00 0.00 62 1007.6
20260505153046 25 217 8.0 19.3 0.00 0.00 0.00 69 1007.5
20260505151540 24 201 8.0 24.1 0.00 0.00 0.00 72 1007.4
20260505124547 20 241 8.0 19.3 0.00 0.00 0.00 82 1006.4
20260505123038 20 193 9.7 16.1 0.00 0.00 0.00 83 1006.1
20260505121537 20 186 9.7 17.7 0.00 0.00 0.00 82 1006.2
20260505120047 20 211 6.4 22.5 0.00 0.00 0.00 83 1006.0
20260505114540 20 232 9.7 19.3 0.00 0.00 0.00 83 1006.0
20260505113040 20 244 9.7 25.7 0.00 0.00 0.00 82 1005.8
20260505111537 20 228 8.0 22.5 0.00 0.00 0.00 82 1005.8
20260505101536 20 196 8.0 22.5 0.00 0.00 0.00 80 1005.7
20260505100036 20 223 9.7 27.4 0.00 0.00 0.00 80 1005.5
20260505094535 20 266 9.7 20.9 0.00 0.00 0.00 79 1005.9
20260505093042 21 211 9.7 20.9 0.00 0.00 0.00 79 1005.8